Погода в Зеленоборском

Россия / Курганская область     56°20′35″N   63°56′39″E
темп.,
°C
ветер,
м/с
пор.,
м/с
влажн.,
%
обл.,
%
осадки,
мм/ч
давл.,
гПа
погр.,
м
21 января, пт
пт2123:00−12ю41091100 0.0 1023187
02:00−13ююз4992100 0.0 1024169
05:00−17ююз379477 0.0 102495
08:00−22ююз24985 0.0 102535
11:00−17юз35965 0.0 102589
14:00−12юз359253 0.0 1025158
17:00−15юз3495100 0.0 102648
20:00−14юз3694100 0.0 102782
22 января, сб
сб2223:00−15юз2494100 0.0 102752
02:00−16юз249393 0.0 102850
05:00−16юз349199 0.0 102952
08:00−21зюз229571 0.0 103018
11:00−16юз238559 0.0 103162
14:00−11юз238513 0.0 1031114
17:00−16юз229533 0.0 103210
20:00−19юз229819 0.0 10339
23 января, вс
вс2323:00−19зюз2298100 0.0 103413
02:00−20ююз229866 0.0 103510
05:00−21зюз119798 0.0 10369
08:00−22з229599 0.0 10379
11:00−15зюз118560 0.0 103835
14:00−11зюз238739 0.0 103898
17:00−16з229564 0.0 103910
20:00−20з229884 0.0 10419
24 января, пн
пн2423:00−20з229745 0.0 104211
02:00−21з229845 0.0 104211
05:00−22зюз229874 0.0 104313
08:00−20зюз229893 0.0 104327
11:00−15юз3593100 0.0 104391
14:00−9ююз3788100 0.0 1041161
17:00−10ююз3890100 0.0 1040140
20:00−10ююз3989100 0.0 1039162
25 января, вт
вт2523:00−12юз3791100 0.0 103897
02:00−13зюз3692100 0.0 103694
05:00−12зюз3791100 0.0 1035115
08:00−10з4990100 0.0 1033194
11:00−8з5109361 0.1 1033354
14:00−8зсз5109226 0.0 1032380
17:00−13з37966 0.0 103394
20:00−14зсз379737 0.0 103391